Richmond, KY

7:34 AM EDT on March 24, 2017 (GMT -0400)
Richmond

Weather History for KI39 - April, 2014

Change the Weather History Date:

Monday, April 14, 2014

  Actual Average (KLEX) Record (KLEX)
Temperature  
Mean Temperature 66 °F -  
Max Temperature 73 °F 66 °F 84 °F (1977)
Min Temperature 53 °F 45 °F 24 °F (1907)
Cooling Degree Days 1    
Growing Degree Days 16 (Base 50)    
Moisture  
Dew Point 51 °F    
Average Humidity 54    
Maximum Humidity 88    
Minimum Humidity 41    
Precipitation  
Precipitation 0.00 in - - ()
Sea Level Pressure  
Sea Level Pressure 29.77 in    
Wind  
Wind Speed 15 mph (SSW)    
Max Wind Speed 24 mph    
Max Gust Speed 34 mph    
Visibility 10 miles    
Events      
Averages and records for this station are not official NWS values.
T = Trace of Precipitation, MM = Missing Value Source: NWS Daily Summary

Daily Weather History Graph

Daily Weather History Graph

Search for Another Location

Airport or City:

Trip Planner

Search our weather history database for the weather conditions in past years. The results will help you decide how hot, cold, wet, or windy it might be!

Date:

Astronomy

Apr. 14, 2014 Rise Set
Actual Time 7:03 AM EDT 8:11 PM EDT
Civil Twilight 6:36 AM EDT 8:39 PM EDT
Nautical Twilight 6:04 AM EDT 9:11 PM EDT
Astronomical Twilight 5:31 AM EDT 9:44 PM EDT
Moon 7:50 PM EDT (4/14) 6:34 AM EDT (4/14)
Length of Visible Light 14h 02m
Length of Day
13h 08m
Full, 100% of the Moon is Illuminated
Apr 14
Full
Apr 15
Full
Apr 22
Last Quarter
Apr 29
New
May 6
First Quarter

Hourly Weather History & Observations

Time (EDT) Temp. Dew Point Humidity Pressure Visibility Wind Dir Wind Speed Gust Speed Precip Events Conditions
12:15 AM 73.4 °F 48.2 °F 41% 29.82 in 10.0 mi South 11.5 mph 20.7 mph N/A   Clear
12:35 AM 71.6 °F 48.2 °F 43% 29.82 in 10.0 mi South 11.5 mph - N/A   Clear
12:55 AM 71.6 °F 50.0 °F 46% 29.82 in 10.0 mi South 9.2 mph 18.4 mph N/A   Clear
1:15 AM 71.6 °F 50.0 °F 46% 29.82 in 10.0 mi South 10.4 mph 17.3 mph N/A   Clear
1:35 AM 71.6 °F 50.0 °F 46% 29.82 in 10.0 mi South 9.2 mph - N/A   Clear
1:55 AM 71.6 °F 50.0 °F 46% 29.81 in 10.0 mi South 11.5 mph 19.6 mph N/A   Scattered Clouds
2:15 AM 71.6 °F 50.0 °F 46% 29.81 in 10.0 mi South 13.8 mph 21.9 mph N/A   Clear
2:35 AM 71.6 °F 50.0 °F 46% 29.80 in 10.0 mi South 19.6 mph 26.5 mph N/A   Clear
2:55 AM 71.6 °F 50.0 °F 46% 29.79 in 10.0 mi South 16.1 mph 20.7 mph N/A   Clear
3:15 AM 71.6 °F 50.0 °F 46% 29.79 in 10.0 mi South 16.1 mph 27.6 mph N/A   Clear
3:35 AM 71.6 °F 50.0 °F 46% 29.78 in 10.0 mi South 16.1 mph 33.4 mph N/A   Clear
3:55 AM 71.6 °F 50.0 °F 46% 29.80 in 10.0 mi South 16.1 mph 29.9 mph N/A   Clear
4:15 AM 71.6 °F 50.0 °F 46% 29.80 in 10.0 mi SSW 21.9 mph 33.4 mph N/A   Mostly Cloudy
4:35 AM 71.6 °F 50.0 °F 46% 29.79 in 10.0 mi South 24.2 mph 32.2 mph N/A   Mostly Cloudy
4:55 AM 71.6 °F 50.0 °F 46% 29.79 in 10.0 mi SSW 17.3 mph 31.1 mph N/A   Mostly Cloudy
5:15 AM 71.6 °F 50.0 °F 46% 29.78 in 10.0 mi SSW 19.6 mph 25.3 mph N/A   Mostly Cloudy
5:35 AM 71.6 °F 50.0 °F 46% 29.78 in 10.0 mi SSW 13.8 mph 21.9 mph N/A   Mostly Cloudy
5:55 AM 71.6 °F 50.0 °F 46% 29.77 in 10.0 mi SSW 19.6 mph 34.5 mph N/A   Scattered Clouds
6:15 AM 69.8 °F 50.0 °F 49% 29.77 in 10.0 mi SSW 15.0 mph 23.0 mph N/A   Clear
6:35 AM 69.8 °F 50.0 °F 49% 29.77 in 10.0 mi SSW 16.1 mph 24.2 mph N/A   Clear
6:55 AM 69.8 °F 50.0 °F 49% 29.76 in 10.0 mi South 18.4 mph 23.0 mph N/A   Scattered Clouds
7:15 AM 69.8 °F 50.0 °F 49% 29.76 in 10.0 mi South 17.3 mph 23.0 mph N/A   Scattered Clouds
7:35 AM 69.8 °F 50.0 °F 49% 29.76 in 10.0 mi South 17.3 mph 29.9 mph N/A   Mostly Cloudy
7:55 AM 69.8 °F 50.0 °F 49% 29.77 in 10.0 mi South 17.3 mph 27.6 mph N/A   Overcast
8:15 AM 69.8 °F 50.0 °F 49% 29.77 in 10.0 mi South 21.9 mph 28.8 mph N/A   Overcast
8:40 AM 68.0 °F 51.8 °F 56% 29.78 in 10.0 mi SSW 19.6 mph 32.2 mph N/A   Overcast
8:55 AM 68.0 °F 51.8 °F 56% 29.79 in 10.0 mi SSW 21.9 mph 34.5 mph N/A   Overcast
9:15 AM 66.2 °F 53.6 °F 64% 29.79 in 10.0 mi SSW 17.3 mph 27.6 mph N/A   Overcast
9:35 AM 66.2 °F 53.6 °F 64% 29.79 in 10.0 mi South 16.1 mph 25.3 mph N/A   Overcast
9:55 AM 66.2 °F 53.6 °F 64% 29.80 in 10.0 mi SSW 16.1 mph 25.3 mph N/A   Overcast
10:15 AM 66.2 °F 53.6 °F 64% 29.80 in 10.0 mi SW 16.1 mph 24.2 mph N/A   Overcast
10:35 AM 64.4 °F 55.4 °F 73% 29.81 in 10.0 mi SSW 16.1 mph 28.8 mph N/A   Overcast
10:55 AM 62.6 °F 53.6 °F 72% 29.81 in 10.0 mi SSW 17.3 mph 26.5 mph N/A   Overcast
11:15 AM 62.6 °F 53.6 °F 72% 29.82 in 10.0 mi SW 16.1 mph 20.7 mph N/A   Overcast
11:35 AM 64.4 °F 53.6 °F 68% 29.83 in 10.0 mi SW 17.3 mph 25.3 mph N/A   Overcast
11:55 AM 64.4 °F 53.6 °F 68% 29.83 in 10.0 mi SSW 13.8 mph 21.9 mph N/A   Overcast
12:15 PM 64.4 °F 53.6 °F 68% 29.82 in 10.0 mi SSW 13.8 mph 20.7 mph N/A   Overcast
12:35 PM 66.2 °F 53.6 °F 64% 29.82 in 10.0 mi SSW 18.4 mph 25.3 mph N/A   Overcast
12:55 PM 66.2 °F 51.8 °F 60% 29.82 in 10.0 mi SSW 20.7 mph 25.3 mph N/A   Overcast
1:15 PM 69.8 °F 51.8 °F 53% 29.81 in 10.0 mi SSW 24.2 mph 31.1 mph N/A   Overcast
1:35 PM 69.8 °F 50.0 °F 49% 29.80 in 10.0 mi SW 20.7 mph 25.3 mph N/A   Scattered Clouds
1:55 PM 69.8 °F 50.0 °F 49% 29.80 in 10.0 mi SW 21.9 mph 33.4 mph N/A   Mostly Cloudy
2:15 PM 71.6 °F 50.0 °F 46% 29.79 in 10.0 mi SW 19.6 mph 29.9 mph N/A   Overcast
2:35 PM 71.6 °F 50.0 °F 46% 29.79 in 10.0 mi SW 16.1 mph 28.8 mph N/A   Overcast
2:55 PM 71.6 °F 50.0 °F 46% 29.79 in 10.0 mi SW 18.4 mph 25.3 mph N/A   Overcast
3:15 PM 71.6 °F 50.0 °F 46% 29.78 in 10.0 mi SW 18.4 mph 25.3 mph N/A   Overcast
3:35 PM 69.8 °F 50.0 °F 49% 29.78 in 10.0 mi SW 16.1 mph 26.5 mph N/A   Overcast
3:55 PM 69.8 °F 50.0 °F 49% 29.78 in 10.0 mi SW 13.8 mph 23.0 mph N/A   Overcast
4:15 PM 69.8 °F 50.0 °F 49% 29.77 in 10.0 mi SW 16.1 mph 24.2 mph N/A   Overcast
4:35 PM 71.6 °F 50.0 °F 46% 29.75 in 10.0 mi SSW 9.2 mph 20.7 mph N/A   Mostly Cloudy
4:55 PM 69.8 °F 50.0 °F 49% 29.75 in 10.0 mi SSW 16.1 mph 20.7 mph N/A   Overcast
5:15 PM 71.6 °F 50.0 °F 46% 29.74 in 10.0 mi SSW 13.8 mph 20.7 mph N/A   Overcast
5:35 PM 69.8 °F 50.0 °F 49% 29.73 in 10.0 mi SSW 13.8 mph 19.6 mph N/A   Overcast
5:55 PM 69.8 °F 50.0 °F 49% 29.72 in 10.0 mi South 11.5 mph 21.9 mph N/A   Scattered Clouds
6:15 PM 69.8 °F 51.8 °F 53% 29.71 in 10.0 mi SSW 12.7 mph 23.0 mph N/A   Clear
6:35 PM 69.8 °F 51.8 °F 53% 29.70 in 10.0 mi SW 17.3 mph 20.7 mph N/A   Clear
6:55 PM 69.8 °F 51.8 °F 53% 29.72 in 10.0 mi SSW 13.8 mph 23.0 mph N/A   Scattered Clouds
7:15 PM 69.8 °F 51.8 °F 53% 29.71 in 10.0 mi SSW 9.2 mph - N/A   Mostly Cloudy
7:35 PM 69.8 °F 51.8 °F 53% 29.70 in 10.0 mi SSW 10.4 mph - N/A   Mostly Cloudy
7:55 PM 69.8 °F 51.8 °F 53% 29.70 in 10.0 mi South 15.0 mph 18.4 mph N/A   Overcast
8:15 PM 68.0 °F 51.8 °F 56% 29.71 in 10.0 mi SSW 11.5 mph - N/A   Overcast
8:35 PM 68.0 °F 51.8 °F 56% 29.70 in 10.0 mi South 10.4 mph - N/A   Overcast
8:55 PM 68.0 °F 51.8 °F 56% 29.70 in 10.0 mi SSW 9.2 mph - N/A   Overcast
9:15 PM 68.0 °F 51.8 °F 56% 29.71 in 10.0 mi South 11.5 mph 18.4 mph N/A   Overcast
9:35 PM 66.2 °F 51.8 °F 60% 29.71 in 10.0 mi South 11.5 mph - N/A   Overcast
9:55 PM 66.2 °F 51.8 °F 60% 29.70 in 10.0 mi South 11.5 mph - N/A   Mostly Cloudy
10:15 PM 66.2 °F 53.6 °F 64% 29.70 in 10.0 mi South 8.1 mph - N/A   Overcast
10:35 PM 66.2 °F 53.6 °F 64% 29.71 in 10.0 mi SSW 10.4 mph - N/A   Overcast
10:55 PM 64.4 °F 55.4 °F 73% 29.71 in 7.0 mi SSW 11.5 mph - N/A   Overcast
11:15 PM 59.0 °F 53.6 °F 82% 29.73 in 5.0 mi West 18.4 mph 27.6 mph N/A   Overcast
11:35 PM 53.6 °F 50.0 °F 88% 29.74 in 7.0 mi WNW 12.7 mph 25.3 mph N/A   Overcast